Wind_Speed
35 32 30 29 27 24 22 21 21 21 19 18 15 13 12 13 17 20 22 23 25 25 26 26 27 27 27 26 24 21 20 20 21 21 21 21 20 18 17 16 16 15 14 13 13 13 13 12 11 10 9 8 8 7 6 6 7 8 9 10 10 11 10
36 34 32 31 29 27 25 23 23 22 21 20 18 16 13 12 15 19 22 23 24 26 26 27 28 28 29 28 26 24 22 21 22 22 22 21 20 19 18 17 16 15 14 13 13 13 12 11 10 8 7 6 5 5 4 3 3 3 4 5 7 7 8
36 34 33 32 30 28 27 25 24 24 22 21 19 17 15 13 15 19 23 24 25 26 26 28 29 30 31 30 28 26 24 23 24 23 23 23 22 21 20 18 17 16 15 14 14 13 12 11 10 9 8 6 5 4 4 3 3 2 2 2 3 3 4
35 33 31 30 30 30 29 27 26 26 25 23 20 18 17 17 17 19 23 25 26 26 27 28 29 31 32 31 30 28 26 25 25 25 25 25 24 23 21 20 18 17 16 16 15 14 13 12 11 10 9 8 7 6 5 5 5 4 4 3 3 2 2
35 33 31 30 29 30 30 29 28 28 27 25 22 21 20 19 19 20 23 25 27 27 28 30 31 32 33 32 31 30 29 28 28 27 27 26 25 24 23 22 20 19 18 17 16 15 14 13 12 11 10 9 9 8 7 6 6 6 6 5 5 4 4
35 34 31 29 29 30 30 30 29 29 29 27 24 23 22 21 21 21 22 25 27 28 29 30 31 33 33 33 33 32 30 30 29 29 28 27 26 25 25 24 23 21 20 18 17 17 16 15 13 12 12 11 10 9 8 8 8 7 7 7 7 6 6
33 34 33 31 31 31 30 30 31 31 31 29 28 26 25 24 22 21 22 24 26 27 28 29 30 31 33 33 33 33 32 31 31 30 29 28 28 27 27 26 25 23 22 20 19 18 17 17 15 14 13 12 11 10 9 8 8 8 8 8 8 8 8
34 35 35 33 33 33 30 30 32 34 33 32 31 29 27 25 24 23 22 23 25 27 27 28 29 30 32 33 32 32 32 32 32 32 31 30 29 29 29 28 27 26 24 22 21 20 19 18 17 15 14 13 12 12 11 9 9 9 9 9 9 9 9
36 37 36 34 32 32 30 31 34 37 36 35 33 30 29 27 26 24 22 23 25 26 26 27 29 30 32 33 33 33 33 33 34 33 32 31 31 31 30 30 29 27 25 24 23 22 21 20 18 17 16 15 14 13 12 11 10 9 10 10 10 10 11
37 38 37 35 32 32 31 32 36 39 38 36 34 32 30 28 27 25 24 24 24 25 26 28 29 30 31 32 34 34 34 34 34 34 33 32 32 32 32 31 30 28 27 26 25 24 23 21 19 18 17 17 16 15 14 12 11 10 11 11 11 12 12
39 37 37 36 34 33 32 31 34 38 38 37 34 33 31 29 28 27 25 24 24 25 27 28 30 31 31 32 34 34 34 34 34 33 33 32 33 33 33 32 31 29 28 27 26 25 24 22 21 20 19 19 17 16 15 13 12 11 11 11 12 13 13
41 39 38 38 37 35 34 34 35 37 38 37 34 33 31 28 28 28 27 26 25 26 27 28 30 32 32 33 33 33 34 33 33 33 33 33 34 34 34 33 32 30 29 28 27 26 25 23 22 21 21 20 18 17 15 14 13 12 11 11 12 13 14
42 41 41 41 41 39 38 37 37 36 37 36 34 32 30 28 28 28 28 27 27 27 28 29 30 31 32 33 33 32 32 32 32 33 34 34 35 35 35 34 33 31 30 29 28 27 26 25 24 23 23 21 19 17 16 14 13 13 12 12 13 14 15
44 44 44 44 44 42 40 39 38 37 35 34 33 32 31 28 28 30 30 29 29 29 29 29 30 31 32 33 32 32 31 31 32 33 34 35 35 35 35 35 34 32 31 30 29 28 27 26 25 24 23 21 19 18 16 14 14 13 13 13 13 14 15
45 46 46 46 46 45 42 39 38 37 36 35 34 34 33 31 29 31 31 31 31 31 31 30 30 31 31 31 31 31 31 31 33 34 35 35 35 35 35 35 34 33 32 30 29 29 28 27 26 25 23 21 20 18 16 15 14 15 15 14 13 13 15
46 47 49 49 48 47 45 42 39 38 38 38 37 36 35 33 31 31 32 32 32 31 31 31 31 31 31 30 30 31 32 33 33 34 35 34 34 34 34 35 34 33 32 31 30 29 29 27 26 25 23 22 20 19 17 15 15 16 16 15 14 13 14
48 49 51 52 51 50 48 44 41 40 40 40 38 36 35 33 32 32 32 32 32 32 31 31 31 31 30 30 30 31 32 32 33 34 34 34 34 34 34 34 34 33 32 31 30 29 28 27 26 25 24 23 21 19 18 17 17 18 17 16 15 14 14
48 51 53 54 53 51 48 46 44 41 40 40 37 35 34 33 32 33 32 32 32 32 32 32 31 31 31 31 32 32 31 31 32 33 33 33 34 34 34 34 33 33 31 30 30 29 28 27 26 25 25 24 22 20 19 18 19 18 18 17 16 15 16
48 49 50 48 45 43 43 45 46 43 41 39 36 33 32 32 32 32 31 32 33 33 32 32 32 32 33 33 32 31 30 31 31 32 33 33 34 34 34 33 33 32 31 31 30 29 28 27 26 26 25 24 22 20 20 20 19 19 19 18 17 16 17
45 43 41 39 38 39 41 44 46 45 42 39 35 32 32 32 32 31 31 32 34 34 32 32 32 34 34 34 32 31 30 30 30 31 32 33 33 34 33 32 32 32 31 31 30 28 27 26 26 26 25 23 22 21 20 20 20 20 20 19 18 18 17
35 34 34 34 35 37 41 44 46 46 44 40 36 34 34 33 32 32 32 34 35 34 33 32 33 35 35 34 33 31 30 29 29 30 31 31 32 32 31 31 31 31 31 30 29 27 27 26 26 26 25 23 22 21 21 21 21 21 21 20 20 19 18
27 29 30 31 33 35 38 41 44 45 44 41 38 37 36 35 34 32 32 35 36 35 33 33 34 35 36 35 33 31 30 29 29 29 29 29 29 29 30 30 30 30 30 29 28 27 27 26 26 26 25 24 23 21 21 22 23 22 22 22 21 20 19
26 27 28 31 34 36 37 39 41 43 44 42 40 39 38 37 35 32 33 36 37 35 34 34 35 36 36 35 33 31 30 29 29 29 28 28 27 27 28 29 29 30 29 28 28 27 27 26 26 26 25 24 23 22 22 24 24 23 23 23 22 21 19
26 24 25 29 32 35 36 37 39 41 43 43 41 40 39 38 36 34 35 38 38 35 35 34 35 35 35 34 33 32 31 30 29 29 28 27 26 26 27 28 28 29 28 27 26 26 26 26 26 25 25 24 23 23 24 25 25 25 25 24 23 21 20
27 24 23 25 28 31 33 35 38 40 42 43 42 41 41 40 38 36 38 40 38 36 35 34 34 34 34 33 33 32 32 31 30 28 27 26 25 26 26 26 27 26 26 25 25 25 25 25 24 24 23 23 23 23 24 26 27 26 26 26 25 22 21
31 27 25 24 25 26 28 32 35 37 38 40 42 43 42 40 39 39 40 40 39 37 35 33 33 33 33 33 33 32 31 30 29 27 26 25 25 25 25 25 24 24 23 23 23 23 23 23 22 22 23 23 23 24 25 26 27 28 28 28 26 23 22
34 30 28 25 23 22 24 27 30 32 35 38 40 41 41 40 40 40 41 41 40 38 35 33 32 32 32 32 31 30 29 28 27 26 25 25 24 24 24 23 23 22 22 22 22 22 21 21 21 21 22 23 23 24 24 25 26 28 29 29 27 24 23
37 34 32 29 24 22 24 26 29 31 32 35 37 39 39 40 40 40 41 41 39 37 35 34 33 32 31 29 29 28 27 27 26 26 25 25 24 23 23 22 22 22 21 21 20 20 20 20 20 20 20 21 21 22 23 24 25 26 27 28 28 26 24
39 36 35 33 27 24 25 26 29 30 31 33 35 37 40 40 40 41 41 40 38 37 36 35 32 31 29 28 28 28 27 27 27 27 26 25 24 24 24 23 23 22 21 21 20 20 19 19 19 19 19 19 19 19 21 22 23 24 25 26 27 27 25
43 40 38 35 30 25 24 25 29 31 32 33 35 36 38 39 40 41 41 40 39 38 37 35 32 31 31 31 31 30 29 29 29 28 28 27 26 26 25 25 25 24 23 23 22 22 21 21 20 20 19 19 19 19 19 20 21 23 24 25 27 27 26
46 44 40 36 31 26 23 25 30 33 34 34 35 35 36 38 40 42 42 41 40 38 37 35 34 34 34 34 33 32 31 32 31 30 30 30 29 28 28 28 28 27 27 26 25 25 25 24 24 23 22 22 21 20 20 21 20 21 22 24 26 27 26
48 46 42 37 31 27 24 27 32 35 36 36 35 33 34 37 40 42 43 42 41 39 38 37 38 39 39 38 36 35 35 34 33 33 33 33 32 32 32 31 30 30 30 29 29 29 29 28 27 27 26 26 25 24 24 23 22 21 21 22 23 25 26
49 46 42 38 32 28 26 28 34 37 37 37 36 33 33 36 39 41 42 43 42 41 40 40 41 43 42 40 39 39 38 38 37 37 37 36 35 35 35 35 34 33 33 32 31 32 32 31 31 30 29 29 29 29 28 27 26 25 24 24 24 24 24
50 47 43 38 34 30 28 30 35 39 39 38 36 34 33 35 37 39 41 42 42 42 41 41 43 44 43 42 43 43 42 42 42 41 41 40 38 38 39 40 39 38 37 35 34 34 34 34 33 32 31 31 31 31 31 30 29 29 29 28 28 27 26
51 47 44 40 35 32 31 32 36 40 41 40 38 37 35 35 36 38 39 40 41 41 41 42 43 42 42 43 44 45 46 46 46 46 46 44 42 42 44 44 43 42 41 39 37 37 36 36 35 35 34 33 33 32 32 32 32 33 34 33 32 31 30
52 48 45 42 38 35 33 34 37 40 43 42 41 39 37 37 37 38 39 40 40 41 41 42 42 40 39 40 40 42 44 45 45 46 46 46 46 47 48 48 46 45 44 42 39 38 38 38 38 38 37 36 36 35 35 35 36 37 38 38 37 36 35
53 50 47 44 41 38 36 36 38 41 42 43 43 42 40 38 38 38 39 40 40 41 42 42 42 42 41 41 41 42 42 43 43 43 44 45 45 46 47 46 44 44 44 43 41 40 40 40 40 40 40 40 39 39 39 40 40 41 42 42 41 40 39
54 51 49 46 44 41 39 39 41 42 43 43 44 44 43 41 39 38 38 39 40 42 43 44 45 45 45 45 45 45 44 44 44 45 45 45 45 45 45 44 42 41 42 42 42 42 42 43 43 43 43 43 43 43 43 44 44 44 44 44 45 45 44
Wind_Direction
203 204 207 211 214 215 215 209 199 194 189 185 181 181 191 194 194 196 197 199 198 195 194 193 194 192 191 193 195 192 185 182 186 188 189 190 190 189 186 183 181 179 176 168 157 148 144 144 142 138 135 133 128 122 117 112 108 104 100 96 92 89 85
206 207 210 213 216 216 216 213 210 204 197 193 188 182 185 192 194 194 195 199 200 198 195 194 194 195 195 196 196 193 188 187 189 191 191 193 194 193 191 188 185 183 181 173 162 157 158 160 159 157 159 157 153 150 146 142 137 128 118 109 102 96 90
210 211 213 214 216 217 216 215 216 213 205 200 196 186 183 189 195 196 196 197 200 201 199 197 196 196 198 199 198 194 190 190 193 194 193 194 196 195 194 191 189 187 183 176 173 173 175 177 177 180 185 188 191 191 192 198 204 206 194 160 133 117 103
213 213 213 213 214 216 215 214 216 215 208 203 198 192 189 192 196 199 198 198 199 200 199 200 199 199 200 201 200 196 192 192 195 197 196 196 196 194 193 193 194 191 187 183 182 183 185 188 191 196 203 207 212 215 219 224 228 234 239 234 217 201 171
213 213 211 211 213 215 214 213 215 214 207 201 198 197 198 199 200 202 200 200 200 200 200 201 201 201 202 202 202 200 195 194 196 198 198 197 195 192 192 195 196 195 192 189 188 190 193 197 201 206 213 219 224 228 232 234 236 238 243 246 242 237 232
213 213 212 210 213 216 213 212 214 212 206 200 198 200 204 205 205 205 204 202 201 202 203 204 203 204 204 204 203 203 199 196 198 200 200 197 194 192 193 196 197 197 196 195 195 197 201 205 209 213 220 226 230 233 234 236 238 240 244 247 246 244 243
212 214 212 210 213 216 214 211 210 207 203 200 200 202 205 207 206 207 207 205 204 204 205 206 206 207 207 207 206 205 202 200 200 201 201 198 195 194 195 197 198 198 198 198 200 203 207 211 214 218 223 227 230 232 232 230 233 239 243 245 245 245 244
213 215 212 211 214 217 217 213 209 205 203 203 204 205 205 206 206 206 207 206 206 206 206 207 209 209 209 210 209 208 206 203 202 203 201 199 197 196 197 198 199 200 200 200 203 207 211 214 216 219 222 224 225 228 229 227 228 234 241 246 247 245 244
211 214 212 211 214 218 219 216 210 206 205 206 207 207 207 206 205 205 206 208 208 206 206 207 209 210 210 210 211 211 210 207 206 205 203 201 199 199 200 201 202 202 201 203 206 209 213 215 216 217 219 221 222 224 226 226 226 230 239 248 251 250 247
209 212 213 211 211 215 219 218 213 209 208 209 210 210 211 208 205 204 206 210 210 207 206 207 208 211 211 211 211 212 212 210 209 208 206 202 201 202 203 204 205 204 203 205 208 211 215 215 215 216 217 219 221 223 224 226 227 231 241 249 253 253 252
206 209 212 211 210 212 216 217 214 211 211 213 214 215 215 212 208 206 207 209 211 210 209 208 208 209 211 212 213 214 214 213 212 211 209 206 203 204 206 207 207 206 206 208 211 213 215 216 215 215 217 219 220 221 225 228 231 235 242 248 251 253 253
205 208 209 209 210 211 211 210 211 213 214 215 217 219 220 218 213 211 209 209 210 211 211 210 209 209 210 212 214 215 215 215 214 213 212 209 207 206 208 209 210 209 208 210 213 215 216 217 216 216 218 220 220 222 226 230 234 237 241 245 249 252 253
203 206 207 208 210 211 209 207 210 214 215 217 220 222 224 223 220 217 215 212 210 212 213 212 210 210 210 212 213 214 216 216 216 215 214 213 210 209 209 211 212 211 211 212 214 216 218 218 218 218 219 221 221 223 227 231 235 239 241 243 245 249 251
201 203 204 205 208 209 209 208 210 212 213 214 218 223 226 226 224 221 219 215 213 213 213 213 212 212 212 212 212 213 215 215 216 216 216 215 213 211 211 212 213 214 214 214 215 217 218 220 221 222 222 222 223 226 230 233 237 241 241 241 243 247 249
203 202 203 204 205 205 206 207 210 212 211 212 215 221 226 226 225 225 222 220 218 216 214 214 214 213 213 212 211 212 213 213 214 215 216 216 215 214 213 214 215 216 216 217 217 218 219 221 223 225 225 225 227 230 234 236 238 240 242 242 245 248 250
205 203 203 204 204 203 201 202 207 210 211 212 214 218 223 225 224 225 224 223 222 220 217 215 215 214 213 212 210 211 212 211 212 214 215 217 217 216 216 216 216 217 218 218 219 220 221 222 223 226 228 228 230 233 236 238 238 240 243 246 248 250 252
206 204 204 205 205 206 203 202 205 209 210 212 213 215 220 223 223 223 222 222 223 223 220 217 216 215 214 211 210 211 212 212 212 213 214 216 217 218 218 217 217 218 219 220 221 222 223 223 223 225 226 228 232 235 237 237 237 240 245 249 251 252 252
208 207 207 207 207 209 208 205 205 208 210 210 210 212 217 221 222 222 221 222 224 224 222 219 216 215 214 212 211 212 212 213 214 214 214 215 216 218 218 218 217 219 220 221 222 223 224 224 224 225 225 227 231 235 236 236 238 241 245 249 251 252 252
211 212 212 211 212 213 212 211 209 207 209 209 207 210 217 221 223 223 222 223 225 225 223 219 216 215 214 213 213 212 213 214 215 215 216 216 217 218 218 218 218 219 220 221 222 224 224 225 226 226 227 229 231 233 234 237 240 243 246 249 250 251 252
214 216 216 216 216 215 215 216 213 208 207 206 204 208 215 219 222 223 222 222 224 225 224 219 215 214 214 214 213 213 213 215 215 216 217 218 219 219 219 219 220 221 222 222 224 225 226 227 227 227 229 231 232 233 235 239 243 245 247 249 251 251 252
212 215 216 215 216 215 216 218 216 211 206 202 202 208 214 216 219 221 221 221 223 225 224 219 214 213 214 214 214 214 214 215 216 217 218 219 220 220 220 220 221 222 224 224 226 227 228 228 228 228 229 232 233 234 236 240 244 246 248 250 251 253 253
209 213 214 215 215 216 218 218 218 214 207 201 203 210 213 215 217 220 221 221 222 224 223 218 214 213 214 214 214 215 215 215 216 218 218 220 220 220 220 221 222 223 224 225 226 228 229 229 228 229 230 231 232 234 237 241 244 245 248 250 252 254 255
211 215 217 218 216 215 215 216 216 214 207 202 205 212 214 215 217 219 220 220 221 224 223 219 214 212 214 215 215 216 217 217 218 218 219 219 220 220 221 221 223 225 226 227 228 228 229 229 229 230 231 232 233 233 237 241 244 245 248 250 251 253 254
206 214 220 220 218 215 214 214 213 211 206 204 206 212 215 217 217 219 219 219 221 223 223 219 215 213 214 215 216 217 218 219 220 221 221 220 219 219 220 221 223 225 227 227 228 228 228 229 230 232 234 236 237 237 240 244 247 248 250 252 253 253 252
199 209 217 220 218 216 213 211 211 210 207 206 207 212 216 217 216 217 217 217 219 221 221 219 216 214 214 215 216 218 219 221 222 223 223 221 219 218 219 220 221 223 223 224 225 226 228 230 232 235 238 240 241 241 244 247 250 251 252 254 255 253 251
197 204 211 214 213 212 210 209 208 209 210 209 210 213 217 217 215 214 214 215 217 219 219 217 215 213 213 214 216 218 220 221 223 223 221 219 217 216 216 217 218 219 220 221 224 226 229 232 235 237 239 240 241 242 245 249 252 252 252 254 255 254 252
198 203 209 211 208 207 208 208 207 207 209 211 212 215 217 215 212 211 213 215 217 217 217 215 212 212 212 214 215 217 218 219 218 216 214 212 211 211 212 213 214 216 217 219 222 225 228 230 232 235 237 239 241 242 245 249 253 255 254 255 255 253 251
200 203 208 210 207 205 205 207 208 207 208 210 212 214 215 213 210 210 213 216 217 217 217 215 213 212 211 211 212 214 212 210 208 206 205 204 204 205 206 208 211 213 215 218 221 223 226 229 232 235 238 242 245 247 249 251 254 257 257 258 258 255 251
203 203 205 207 207 203 201 204 208 210 211 212 212 214 214 211 208 210 213 217 217 217 218 217 214 212 210 209 210 209 206 203 202 201 201 202 203 204 206 208 211 214 216 219 222 225 228 232 236 240 244 248 251 252 254 254 254 256 257 259 260 258 253
205 205 203 204 205 201 199 201 206 210 213 215 216 217 215 211 209 210 214 216 218 218 219 218 214 211 211 211 210 209 206 203 203 202 203 205 207 208 211 213 216 217 219 222 226 229 231 235 240 244 248 252 254 255 257 258 258 257 257 258 260 261 258
208 207 204 202 202 199 198 201 206 209 213 217 219 219 216 211 209 211 214 216 217 218 219 217 214 212 213 213 212 210 209 209 208 208 209 211 212 213 216 218 220 222 224 226 228 231 233 236 239 243 246 249 252 255 259 263 265 264 262 260 260 261 262
210 210 206 203 200 198 199 203 207 209 213 217 220 219 215 211 210 211 214 215 217 218 219 217 215 215 214 213 213 213 213 214 215 216 216 217 217 218 219 221 224 226 227 229 230 232 234 237 239 241 244 247 251 254 258 262 265 266 266 266 265 265 265
211 211 208 205 202 200 201 204 207 210 213 216 219 218 215 212 212 213 214 215 216 218 219 220 220 219 217 214 214 216 217 218 219 220 221 223 222 220 221 222 224 225 227 229 233 235 236 238 239 241 243 246 249 253 257 260 263 264 265 266 267 268 268
213 213 210 208 205 203 203 203 205 209 212 215 217 218 215 213 212 213 214 216 217 219 221 223 225 226 224 220 218 219 220 220 221 221 224 227 227 225 225 225 224 224 225 227 231 235 237 240 242 243 244 246 248 252 256 258 261 263 264 264 264 266 267
216 215 214 212 208 204 203 203 204 207 210 213 217 218 216 212 211 212 213 215 217 219 222 226 230 232 232 230 227 224 224 224 225 224 224 226 228 229 230 229 227 226 227 227 230 234 238 241 243 246 248 249 251 253 255 257 258 259 261 262 263 263 264
217 217 216 215 212 207 203 203 204 206 209 212 215 219 219 215 212 212 213 215 217 220 223 228 233 236 237 238 237 234 232 233 233 231 229 229 230 232 234 233 231 231 230 231 233 236 240 243 245 247 249 251 252 254 255 256 257 258 260 262 263 262 261
218 218 218 218 216 211 205 203 204 206 208 211 214 218 221 220 217 216 217 218 220 222 225 229 233 236 238 240 241 241 240 240 241 240 239 239 239 240 242 242 240 237 235 235 237 241 244 247 249 250 252 253 254 255 255 256 257 258 260 262 263 264 263
218 218 219 220 218 213 207 204 205 207 209 211 214 217 220 222 221 219 219 220 222 224 227 230 233 236 239 241 242 244 244 245 245 245 246 247 248 249 251 252 251 248 243 242 243 245 248 251 252 254 255 256 258 259 260 261 262 263 264 264 264 265 265
Height
5886 5888 5889 5891 5893 5895 5896 5897 5898 5898 5900 5901 5902 5904 5905 5907 5909 5911 5913 5915 5917 5919 5920 5923 5925 5926 5928 5930 5932 5934 5936 5938 5939 5941 5943 5944 5946 5947 5948 5949 5950 5952 5953 5954 5955 5956 5957 5958 5959 5960 5961 5961 5962 5963 5963 5963 5963 5963 5963 5963 5962 5962 5962
5884 5886 5888 5890 5891 5893 5895 5896 5896 5897 5898 5900 5901 5902 5904 5906 5907 5909 5911 5913 5915 5917 5919 5920 5922 5925 5926 5928 5930 5932 5934 5936 5938 5939 5941 5943 5945 5946 5947 5948 5949 5951 5952 5953 5955 5956 5957 5958 5959 5960 5960 5961 5962 5962 5963 5964 5964 5964 5964 5963 5963 5963 5963
5882 5884 5886 5888 5890 5892 5893 5895 5896 5896 5897 5899 5900 5901 5902 5904 5905 5907 5909 5911 5913 5915 5917 5919 5920 5922 5924 5926 5928 5930 5932 5935 5936 5938 5939 5941 5943 5944 5946 5947 5948 5950 5951 5953 5954 5955 5956 5957 5958 5959 5960 5961 5961 5962 5963 5963 5964 5964 5964 5964 5963 5963 5963
5879 5882 5884 5886 5888 5890 5891 5893 5894 5895 5896 5897 5899 5900 5901 5902 5903 5904 5906 5908 5910 5912 5915 5917 5918 5920 5921 5924 5926 5928 5930 5933 5934 5936 5937 5939 5941 5943 5945 5946 5947 5949 5950 5951 5953 5954 5955 5957 5958 5959 5959 5960 5961 5961 5962 5962 5963 5964 5964 5964 5964 5963 5963
5878 5880 5881 5884 5885 5887 5889 5891 5892 5893 5894 5896 5897 5898 5899 5900 5901 5902 5904 5906 5908 5910 5912 5913 5915 5917 5919 5921 5924 5926 5928 5930 5932 5934 5935 5937 5939 5941 5943 5945 5946 5948 5949 5950 5951 5953 5954 5955 5957 5958 5959 5959 5960 5961 5961 5962 5962 5963 5963 5963 5963 5963 5963
5876 5878 5880 5882 5883 5884 5887 5889 5890 5892 5893 5894 5895 5896 5897 5898 5899 5901 5902 5904 5906 5908 5909 5911 5913 5915 5916 5919 5921 5923 5926 5928 5930 5932 5934 5935 5937 5939 5941 5943 5944 5946 5947 5949 5950 5952 5953 5954 5955 5957 5958 5959 5959 5960 5960 5961 5961 5962 5962 5963 5963 5963 5963
5874 5876 5878 5880 5881 5882 5885 5887 5888 5890 5891 5892 5892 5893 5894 5896 5897 5899 5900 5902 5904 5906 5908 5910 5912 5913 5915 5917 5919 5921 5924 5926 5928 5930 5932 5934 5936 5937 5939 5941 5943 5944 5946 5947 5949 5950 5952 5953 5954 5955 5956 5957 5958 5959 5959 5960 5961 5961 5961 5962 5962 5962 5962
5872 5874 5876 5878 5879 5880 5882 5884 5886 5887 5888 5889 5889 5891 5892 5894 5895 5897 5898 5900 5902 5904 5906 5908 5910 5912 5913 5915 5917 5919 5922 5923 5925 5927 5929 5931 5934 5935 5937 5939 5941 5942 5944 5946 5947 5948 5950 5951 5952 5953 5955 5956 5957 5958 5958 5959 5959 5960 5960 5961 5961 5961 5961
5868 5871 5873 5875 5876 5878 5880 5882 5883 5884 5885 5886 5888 5889 5890 5892 5893 5895 5897 5898 5900 5902 5904 5906 5907 5909 5911 5913 5915 5917 5919 5921 5923 5925 5927 5929 5932 5934 5935 5937 5938 5940 5942 5944 5945 5946 5948 5949 5950 5952 5953 5954 5955 5956 5957 5957 5958 5959 5959 5959 5960 5960 5960
5865 5868 5870 5872 5874 5875 5877 5878 5880 5881 5883 5884 5886 5887 5888 5890 5891 5893 5895 5896 5898 5900 5901 5903 5905 5906 5908 5911 5912 5914 5916 5918 5921 5923 5925 5927 5930 5931 5933 5935 5936 5938 5940 5942 5943 5944 5946 5947 5948 5950 5951 5952 5953 5954 5955 5955 5956 5957 5958 5958 5958 5959 5959
5861 5864 5866 5868 5870 5872 5873 5875 5878 5880 5881 5883 5885 5886 5887 5889 5890 5891 5893 5894 5896 5898 5899 5900 5902 5904 5906 5908 5910 5911 5914 5916 5919 5921 5923 5925 5927 5929 5931 5933 5935 5936 5938 5940 5941 5943 5944 5945 5947 5948 5949 5950 5951 5952 5953 5954 5955 5956 5956 5957 5957 5957 5957
5857 5859 5862 5864 5866 5868 5870 5873 5875 5877 5879 5882 5883 5885 5886 5888 5889 5889 5891 5892 5894 5895 5896 5898 5899 5901 5903 5905 5907 5910 5912 5914 5917 5920 5922 5923 5925 5927 5929 5931 5933 5934 5936 5938 5939 5940 5942 5943 5945 5946 5947 5948 5949 5950 5951 5953 5953 5954 5955 5955 5955 5956 5956
5852 5855 5858 5859 5861 5863 5865 5868 5871 5874 5877 5879 5881 5883 5885 5887 5888 5888 5889 5890 5891 5892 5894 5895 5897 5899 5901 5903 5905 5907 5910 5913 5915 5917 5919 5921 5922 5924 5926 5928 5930 5932 5934 5936 5937 5938 5940 5941 5942 5943 5945 5946 5947 5949 5950 5951 5952 5953 5953 5954 5954 5954 5954
5846 5849 5852 5854 5856 5858 5861 5864 5867 5870 5873 5876 5879 5880 5882 5884 5886 5887 5887 5888 5889 5890 5891 5893 5895 5897 5899 5900 5903 5905 5908 5910 5912 5914 5916 5918 5920 5922 5924 5926 5928 5930 5932 5933 5935 5936 5937 5939 5940 5941 5942 5944 5946 5947 5948 5950 5950 5951 5951 5952 5952 5953 5953
5840 5844 5846 5849 5851 5854 5858 5861 5864 5867 5870 5873 5875 5877 5879 5881 5883 5885 5885 5886 5887 5888 5889 5891 5893 5894 5896 5899 5901 5903 5905 5907 5909 5911 5913 5915 5917 5920 5922 5924 5926 5928 5929 5931 5933 5934 5935 5937 5938 5939 5941 5942 5944 5945 5947 5948 5949 5949 5949 5950 5950 5951 5951
5835 5839 5841 5844 5847 5850 5853 5857 5861 5864 5866 5869 5872 5874 5876 5878 5881 5883 5884 5885 5885 5886 5888 5889 5891 5893 5895 5897 5899 5900 5901 5903 5906 5908 5910 5913 5915 5918 5920 5922 5923 5925 5927 5929 5931 5932 5934 5935 5936 5938 5939 5940 5942 5943 5945 5946 5946 5947 5947 5948 5949 5949 5950
5831 5834 5837 5840 5843 5846 5849 5853 5857 5860 5862 5865 5868 5871 5873 5876 5878 5880 5881 5882 5883 5885 5886 5887 5889 5891 5893 5895 5896 5897 5899 5901 5903 5906 5908 5911 5913 5915 5917 5919 5921 5923 5925 5927 5929 5930 5932 5933 5935 5936 5937 5938 5940 5941 5942 5943 5944 5944 5945 5946 5947 5947 5948
5827 5830 5832 5835 5838 5842 5846 5849 5852 5856 5859 5862 5865 5868 5870 5873 5875 5877 5879 5880 5882 5882 5883 5885 5887 5889 5891 5892 5893 5895 5897 5899 5901 5904 5906 5908 5910 5912 5914 5916 5919 5921 5923 5925 5927 5928 5930 5932 5933 5934 5935 5937 5938 5939 5940 5941 5941 5942 5943 5944 5945 5945 5946
5824 5826 5830 5834 5838 5842 5845 5847 5849 5853 5856 5860 5863 5865 5868 5870 5873 5875 5877 5878 5879 5880 5881 5883 5885 5887 5888 5889 5891 5893 5895 5897 5899 5902 5904 5906 5908 5910 5912 5914 5917 5919 5921 5922 5924 5926 5928 5930 5931 5932 5933 5935 5936 5937 5938 5938 5939 5940 5941 5942 5942 5943 5944
5822 5825 5828 5832 5836 5838 5841 5843 5846 5850 5853 5857 5860 5863 5865 5867 5870 5872 5874 5875 5875 5877 5878 5880 5882 5883 5885 5887 5889 5891 5893 5895 5897 5899 5901 5903 5905 5907 5910 5913 5915 5916 5918 5920 5922 5924 5926 5927 5929 5930 5931 5932 5933 5935 5935 5936 5936 5937 5938 5939 5940 5941 5941
5820 5823 5825 5828 5831 5834 5836 5839 5842 5846 5849 5853 5856 5858 5861 5864 5866 5868 5870 5872 5873 5874 5876 5877 5879 5880 5882 5884 5887 5889 5891 5893 5895 5897 5899 5901 5903 5906 5908 5910 5912 5914 5916 5918 5919 5921 5923 5924 5926 5927 5928 5930 5931 5932 5933 5934 5934 5935 5936 5936 5937 5938 5939
5818 5820 5822 5824 5827 5830 5832 5835 5839 5842 5846 5849 5852 5854 5857 5860 5863 5865 5867 5869 5870 5872 5873 5875 5876 5878 5879 5882 5884 5887 5889 5891 5893 5895 5897 5899 5902 5904 5906 5908 5910 5912 5913 5915 5917 5918 5920 5922 5923 5924 5926 5927 5928 5930 5931 5931 5931 5932 5933 5933 5934 5935 5936
5815 5817 5819 5821 5823 5826 5828 5831 5834 5838 5841 5845 5848 5851 5854 5857 5860 5862 5864 5866 5867 5869 5871 5872 5874 5875 5877 5880 5883 5885 5887 5889 5891 5893 5895 5898 5900 5902 5904 5906 5907 5909 5911 5912 5914 5916 5917 5919 5920 5921 5923 5924 5926 5927 5928 5928 5928 5930 5930 5931 5932 5933 5934
5813 5815 5816 5818 5820 5823 5825 5828 5831 5834 5838 5841 5844 5847 5851 5853 5856 5859 5861 5863 5865 5867 5869 5870 5872 5874 5876 5878 5881 5883 5885 5887 5889 5891 5894 5896 5898 5900 5902 5903 5905 5906 5908 5910 5912 5913 5914 5916 5917 5919 5920 5922 5923 5925 5925 5925 5926 5927 5928 5928 5930 5931 5932
5811 5813 5815 5816 5817 5820 5822 5825 5828 5831 5834 5837 5840 5844 5847 5850 5853 5856 5858 5860 5862 5864 5866 5868 5870 5872 5874 5876 5878 5880 5883 5885 5887 5890 5892 5894 5896 5898 5899 5901 5902 5904 5906 5907 5909 5911 5912 5913 5915 5917 5918 5919 5921 5922 5922 5922 5923 5924 5925 5926 5927 5928 5929
5808 5811 5813 5814 5815 5817 5819 5822 5825 5828 5831 5835 5838 5840 5843 5846 5849 5852 5855 5857 5860 5862 5865 5867 5869 5870 5872 5874 5876 5878 5881 5883 5886 5888 5890 5892 5894 5896 5897 5899 5900 5902 5904 5906 5907 5908 5910 5912 5913 5914 5916 5917 5918 5919 5920 5920 5920 5921 5922 5923 5924 5926 5926
5805 5808 5811 5813 5814 5815 5817 5820 5823 5827 5830 5833 5835 5837 5840 5843 5846 5850 5852 5855 5858 5861 5863 5865 5866 5868 5870 5872 5874 5877 5879 5882 5884 5886 5888 5890 5892 5894 5895 5897 5899 5901 5902 5904 5905 5907 5908 5909 5911 5912 5913 5914 5915 5916 5917 5917 5916 5917 5918 5919 5921 5922 5924
5801 5804 5808 5811 5812 5814 5816 5818 5821 5824 5827 5830 5832 5835 5837 5840 5845 5848 5850 5853 5856 5859 5861 5863 5864 5866 5869 5871 5873 5875 5877 5880 5882 5884 5886 5888 5890 5892 5894 5896 5897 5899 5900 5902 5903 5905 5906 5907 5908 5909 5910 5911 5912 5913 5914 5914 5914 5914 5915 5916 5917 5919 5921
5798 5801 5804 5808 5810 5812 5814 5817 5819 5822 5825 5827 5830 5832 5835 5838 5843 5846 5849 5852 5855 5858 5859 5861 5864 5866 5868 5870 5872 5873 5876 5878 5880 5882 5884 5886 5889 5890 5892 5894 5895 5897 5898 5900 5901 5903 5904 5905 5906 5907 5908 5909 5910 5910 5911 5911 5911 5911 5912 5913 5914 5915 5917
5795 5798 5801 5805 5808 5809 5812 5814 5817 5820 5823 5825 5828 5830 5833 5837 5841 5844 5847 5850 5853 5855 5858 5860 5862 5865 5866 5868 5870 5872 5874 5876 5878 5880 5882 5884 5886 5888 5890 5892 5893 5895 5896 5897 5899 5900 5901 5902 5903 5904 5906 5906 5907 5908 5908 5908 5909 5909 5910 5910 5911 5912 5913
5792 5795 5799 5802 5805 5807 5809 5812 5815 5818 5820 5823 5825 5828 5831 5835 5838 5841 5844 5847 5850 5853 5856 5858 5860 5862 5863 5865 5867 5870 5872 5874 5875 5877 5879 5881 5883 5885 5887 5889 5890 5892 5893 5894 5896 5897 5898 5899 5901 5902 5903 5904 5904 5905 5905 5906 5906 5907 5907 5908 5908 5909 5910
5790 5793 5796 5799 5802 5805 5807 5810 5812 5815 5818 5820 5823 5826 5829 5832 5835 5838 5841 5844 5847 5850 5853 5855 5857 5858 5859 5862 5865 5867 5869 5871 5873 5874 5876 5878 5880 5882 5883 5885 5887 5889 5890 5891 5893 5894 5895 5896 5897 5899 5900 5901 5901 5902 5903 5903 5904 5905 5905 5905 5906 5906 5907
5787 5790 5794 5797 5799 5802 5805 5807 5810 5813 5815 5817 5820 5823 5826 5829 5831 5834 5837 5840 5844 5847 5849 5851 5853 5854 5856 5858 5861 5863 5865 5867 5868 5870 5872 5874 5876 5878 5879 5881 5883 5885 5887 5888 5889 5890 5891 5893 5894 5895 5896 5897 5898 5899 5900 5901 5902 5902 5903 5903 5903 5904 5904
5784 5788 5791 5794 5797 5799 5802 5805 5807 5810 5812 5815 5817 5820 5823 5826 5829 5831 5834 5837 5840 5843 5846 5848 5849 5850 5852 5854 5856 5858 5860 5862 5864 5866 5867 5869 5872 5874 5875 5876 5878 5880 5882 5884 5885 5886 5888 5889 5890 5892 5893 5894 5895 5896 5897 5898 5899 5900 5900 5900 5900 5900 5901
5781 5785 5788 5791 5794 5796 5798 5801 5804 5807 5810 5812 5815 5817 5820 5824 5826 5829 5832 5834 5837 5840 5843 5844 5845 5847 5848 5851 5853 5855 5856 5857 5859 5861 5863 5865 5868 5869 5870 5872 5874 5876 5878 5879 5880 5882 5884 5885 5887 5888 5889 5890 5892 5893 5894 5895 5896 5896 5896 5896 5897 5897 5897
5778 5782 5785 5788 5791 5793 5795 5798 5801 5804 5807 5809 5812 5814 5817 5821 5824 5826 5829 5832 5834 5837 5839 5840 5842 5843 5845 5847 5849 5850 5852 5853 5855 5858 5860 5862 5864 5865 5866 5869 5871 5872 5873 5875 5876 5877 5879 5881 5882 5884 5885 5886 5888 5889 5890 5891 5891 5891 5891 5892 5892 5893 5893
5774 5778 5782 5785 5787 5790 5792 5795 5798 5801 5804 5807 5809 5811 5814 5817 5821 5824 5826 5829 5831 5833 5835 5836 5838 5839 5841 5842 5844 5846 5848 5850 5852 5854 5856 5858 5860 5861 5863 5865 5867 5868 5869 5870 5871 5873 5875 5876 5878 5879 5880 5882 5883 5884 5885 5886 5886 5887 5887 5887 5888 5888 5888
5770 5774 5777 5781 5784 5786 5789 5792 5795 5798 5800 5803 5806 5809 5811 5814 5817 5820 5823 5825 5827 5829 5831 5832 5834 5835 5837 5838 5840 5842 5844 5846 5848 5849 5851 5853 5855 5857 5859 5861 5863 5864 5865 5866 5867 5868 5870 5871 5873 5874 5875 5877 5878 5879 5880 5881 5881 5881 5882 5882 5883 5883 5883